CW4086 Weather Reports


time (UTC)temp
C
wind
direction
speed
KPH
gust
KPH
rain 1hr
cm
rain 24hr
cm
rain mn
cm
humidity
%
barometer
mb
20260506180605 17 315 8.0 12.9 0.00 0.00 0.00 51 1019.4
20260506180104 17 328 1.6 11.3 0.00 0.00 0.00 50 1019.4
20260506175604 16 328 4.8 11.3 0.00 0.00 0.00 53 1019.4
20260506175104 16 300 4.8 11.3 0.00 0.00 0.00 54 1019.4
20260506174604 16 331 4.8 11.3 0.00 0.00 0.00 53 1019.4
20260506174104 16 322 6.4 12.9 0.00 0.00 0.00 53 1019.4
20260506173104 16 267 6.4 11.3 0.00 0.00 0.00 56 1019.4
20260506172604 16 321 3.2 11.3 0.00 0.00 0.00 55 1019.4
20260506171104 15 316 4.8 11.3 0.00 0.00 0.00 57 1019.4
20260506170603 15 280 8.0 11.3 0.00 0.00 0.00 58 1019.4
20260506170104 15 289 6.4 9.7 0.00 0.00 0.00 58 1019.3
20260506165604 15 246 4.8 11.3 0.00 0.00 0.00 57 1019.3
20260506165104 15 285 4.8 11.3 0.00 0.00 0.00 58 1019.4
20260506164604 15 278 6.4 9.7 0.00 0.00 0.00 57 1019.4
20260506163603 14 307 3.2 8.0 0.00 0.00 0.00 61 1019.3
20260506163104 14 314 3.2 8.0 0.00 0.00 0.00 60 1019.4
20260506162604 13 321 4.8 8.0 0.00 0.00 0.00 61 1019.3
20260506160604 13 282 1.6 4.8 0.00 0.03 0.00 65 1019.4
20260506160104 13 282 3.2 8.0 0.00 0.03 0.00 65 1019.4
20260506155605 13 281 4.8 8.0 0.00 0.03 0.00 66 1019.4
20260506155104 13 329 3.2 4.8 0.00 0.03 0.00 66 1019.3
20260506154604 13 329 3.2 4.8 0.00 0.03 0.00 67 1019.3
20260506153603 13 346 1.6 4.8 0.00 0.03 0.00 69 1019.3
20260506153104 12 346 0.0 4.8 0.00 0.03 0.00 70 1019.2
20260506152603 12 346 0.0 4.8 0.00 0.03 0.00 69 1019.3
20260506152104 12 346 0.0 4.8 0.00 0.03 0.00 70 1019.3
20260506151604 12 346 3.2 4.8 0.00 0.03 0.00 70 1019.3
20260506151106 12 117 0.0 4.8 0.00 0.03 0.00 72 1019.3
20260506150604 12 117 0.0 1.6 0.00 0.03 0.00 72 1019.3
20260506150104 11 117 0.0 3.2 0.00 0.03 0.00 73 1019.2
20260506145604 12 117 0.0 3.2 0.00 0.03 0.00 73 1019.3
20260506145104 12 115 0.0 1.6 0.00 0.03 0.00 75 1019.3
20260506144604 12 115 0.0 0.0 0.00 0.03 0.00 78 1019.3
20260506144103 11 115 0.0 0.0 0.00 0.03 0.00 80 1019.2
20260506143604 11 115 0.0 0.0 0.00 0.05 0.00 81 1019.1
20260506143104 10 115 0.0 1.6 0.00 0.08 0.00 83 1019.1
20260506142605 10 115 0.0 3.2 0.00 0.08 0.00 84 1019.1
20260506142104 10 115 0.0 3.2 0.00 0.10 0.00 85 1019.0
20260506141605 9 117 1.6 1.6 0.00 0.10 0.00 86 1019.0
20260506141107 9 120 0.0 1.6 0.00 0.15 0.00 87 1019.0
20260506140603 8 120 0.0 1.6 0.00 0.15 0.00 87 1019.0
20260506135604 8 120 0.0 3.2 0.00 0.15 0.00 87 1018.9
20260506135104 8 120 0.0 3.2 0.00 0.18 0.00 87 1018.9
20260506134604 8 123 0.0 3.2 0.00 0.18 0.00 87 1018.9
20260506134104 7 146 0.0 3.2 0.00 0.18 0.00 87 1018.9
20260506133604 7 146 0.0 1.6 0.00 0.18 0.00 87 1018.8
20260506133104 7 146 0.0 1.6 0.00 0.20 0.00 87 1018.8
20260506132604 7 146 0.0 3.2 0.00 0.20 0.00 87 1018.8
20260506132104 7 146 0.0 3.2 0.00 0.23 0.00 88 1018.8
20260506130605 7 149 1.6 3.2 0.00 0.30 0.00 88 1018.7
20260506130104 7 149 0.0 3.2 0.00 0.33 0.00 87 1018.7
20260506125104 7 149 0.0 3.2 0.00 0.33 0.00 87 1018.5
20260506124604 7 150 0.0 3.2 0.00 0.33 0.00 87 1018.4
20260506123604 7 150 0.0 3.2 0.00 0.33 0.00 87 1018.4
20260506123104 7 150 1.6 3.2 0.00 0.33 0.00 87 1018.4
20260506122604 7 150 1.6 3.2 0.00 0.33 0.00 87 1018.4
20260506122104 7 151 1.6 3.2 0.00 0.33 0.00 87 1018.4
20260506121604 7 151 1.6 3.2 0.00 0.33 0.00 86 1018.4
20260506121106 7 151 0.0 1.6 0.00 0.33 0.00 87 1018.4
20260506120604 7 151 0.0 1.6 0.00 0.36 0.00 87 1018.4
20260506120104 7 151 0.0 1.6 0.00 0.36 0.00 87 1018.4
20260506115604 7 151 0.0 1.6 0.00 0.36 0.00 87 1018.4
20260506115104 7 151 0.0 1.6 0.00 0.36 0.00 87 1018.4
20260506114604 7 151 0.0 1.6 0.00 0.36 0.00 87 1018.4
20260506114104 7 151 0.0 1.6 0.00 0.38 0.00 87 1018.4
20260506113604 7 151 0.0 1.6 0.00 0.38 0.00 86 1018.4
20260506113104 7 151 0.0 1.6 0.00 0.38 0.00 86 1018.4
20260506112605 7 151 0.0 3.2 0.00 0.38 0.00 86 1018.4
20260506111604 7 151 0.0 3.2 0.00 0.38 0.00 85 1018.4
20260506110604 8 152 1.6 3.2 0.00 0.38 0.00 85 1018.4
20260506110104 8 155 1.6 3.2 0.00 0.38 0.00 85 1018.4
20260506105605 8 154 1.6 3.2 0.00 0.38 0.00 85 1018.4
20260506105104 8 155 0.0 1.6 0.00 0.38 0.00 85 1018.4
20260506104604 8 156 0.0 1.6 0.00 0.38 0.00 84 1018.4
20260506104104 8 156 0.0 3.2 0.00 0.38 0.00 84 1018.4
20260506103604 8 156 1.6 3.2 0.00 0.38 0.00 85 1018.4
20260506103104 8 156 0.0 3.2 0.00 0.38 0.00 84 1018.3
20260506102604 8 157 1.6 3.2 0.00 0.38 0.00 84 1018.3
20260506101606 8 169 1.6 3.2 0.00 0.38 0.00 83 1018.2
20260506101106 9 170 0.0 3.2 0.00 0.38 0.00 83 1018.2
20260506100604 9 171 1.6 3.2 0.00 0.38 0.00 83 1018.2
20260506100104 9 176 1.6 3.2 0.00 0.38 0.00 83 1018.2
20260506095604 9 180 1.6 3.2 0.00 0.38 0.00 83 1018.3
20260506094604 9 184 0.0 0.0 0.00 0.38 0.00 83 1018.3
20260506094104 9 184 0.0 1.6 0.00 0.38 0.00 82 1018.2
20260506093604 9 184 0.0 1.6 0.00 0.38 0.00 82 1018.3
20260506092604 10 184 0.0 0.0 0.00 0.38 0.00 81 1018.2
20260506091604 10 184 0.0 0.0 0.00 0.38 0.00 81 1018.3
20260506091104 10 184 0.0 0.0 0.00 0.38 0.00 81 1018.3
20260506090604 10 184 0.0 0.0 0.00 0.38 0.00 81 1018.3
20260506090104 10 184 0.0 0.0 0.00 0.38 0.00 81 1018.3
20260506085104 10 184 0.0 1.6 0.00 0.41 0.00 80 1018.3
20260506084604 10 184 0.0 1.6 0.00 0.43 0.00 80 1018.4
20260506084104 10 184 0.0 1.6 0.00 0.43 0.00 79 1018.4
20260506083604 10 184 0.0 0.0 0.00 0.43 0.00 79 1018.5
20260506082604 10 184 0.0 0.0 0.00 0.43 0.00 79 1018.7
20260506082106 11 184 0.0 0.0 0.00 0.43 0.00 78 1018.7
20260506081606 11 184 0.0 1.6 0.00 0.43 0.00 78 1018.7
20260506081107 11 184 0.0 1.6 0.00 0.43 0.00 78 1018.7
20260506080604 11 184 0.0 1.6 0.00 0.43 0.00 78 1018.7
20260506073104 11 184 0.0 1.6 0.00 0.46 0.00 78 1018.9
20260506072604 11 184 0.0 3.2 0.00 0.53 0.00 77 1018.9
20260506072105 11 184 0.0 3.2 0.00 0.58 0.00 77 1018.8
20260506071604 11 190 0.0 3.2 0.00 0.58 0.00 76 1018.9
20260506071104 11 191 0.0 1.6 0.00 0.58 0.00 76 1018.9
20260506070604 11 191 0.0 1.6 0.00 0.58 0.00 76 1018.9
20260506070104 11 191 0.0 3.2 0.00 0.58 0.00 75 1018.8
20260506062105 11 164 0.0 3.2 0.00 0.58 0.58 72 1018.5
20260506061604 11 176 1.6 3.2 0.00 0.58 0.58 72 1018.4
20260506061105 11 204 0.0 3.2 0.00 0.58 0.58 72 1018.5
20260506060603 11 162 1.6 4.8 0.00 0.58 0.58 72 1018.4
20260506060104 11 191 0.0 4.8 0.00 0.58 0.58 72 1018.4
20260506051104 11 163 1.6 3.2 0.00 0.58 0.58 74 1017.9
20260506050604 11 152 0.0 3.2 0.00 0.58 0.58 73 1017.8
20260506050105 11 168 0.0 3.2 0.00 0.58 0.58 73 1017.7
20260506044604 12 171 0.0 1.6 0.00 0.58 0.58 71 1017.6
20260506044104 12 178 0.0 1.6 0.00 0.58 0.58 71 1017.6
20260506043604 12 177 0.0 1.6 0.00 0.58 0.58 70 1017.6
20260506043103 12 172 0.0 1.6 0.00 0.58 0.58 69 1017.6
20260506042603 12 182 0.0 1.6 0.00 0.58 0.58 69 1017.5
20260506042106 12 182 0.0 1.6 0.00 0.58 0.58 69 1017.4
20260506041604 12 173 0.0 3.2 0.00 0.58 0.58 68 1017.2
20260506041106 12 173 0.0 3.2 0.00 0.58 0.58 69 1017.1
20260506040604 12 167 0.0 1.6 0.00 0.58 0.58 68 1017.1
20260506040104 12 168 0.0 0.0 0.00 0.58 0.58 67 1017.1
20260506035604 12 168 0.0 1.6 0.00 0.58 0.58 67 1017.1
20260506034603 12 167 0.0 1.6 0.00 0.58 0.58 67 1016.9
20260506034104 12 167 0.0 1.6 0.00 0.58 0.58 66 1016.8
20260506033604 12 167 0.0 1.6 0.00 0.58 0.58 66 1016.8
20260506033104 12 167 0.0 1.6 0.00 0.58 0.58 66 1016.7
20260506032604 12 167 0.0 3.2 0.00 0.58 0.58 66 1016.6
20260506031604 12 168 0.0 1.6 0.00 0.58 0.58 65 1016.5
20260506031106 12 168 0.0 1.6 0.00 0.58 0.58 65 1016.5
20260506030104 12 168 0.0 1.6 0.00 0.58 0.58 65 1016.5
20260506025603 12 170 0.0 3.2 0.00 0.58 0.58 65 1016.4
20260506025104 12 170 0.0 3.2 0.00 0.58 0.58 66 1016.2
20260506024605 12 161 1.6 3.2 0.00 0.58 0.58 66 1016.0
20260506024104 12 238 1.6 3.2 0.00 0.58 0.58 66 1016.0
20260506023604 12 261 0.0 3.2 0.00 0.58 0.58 67 1016.0
20260506023104 12 259 1.6 4.8 0.00 0.58 0.58 67 1016.0
20260506022604 12 247 1.6 4.8 0.00 0.58 0.58 66 1015.9
20260506022104 12 329 1.6 4.8 0.00 0.58 0.58 66 1015.9
20260506021106 12 250 1.6 4.8 0.00 0.58 0.58 66 1015.7
20260506020605 12 274 1.6 4.8 0.00 0.58 0.58 66 1015.5
20260506020104 13 261 1.6 4.8 0.00 0.58 0.58 66 1015.4
20260506015604 13 261 1.6 9.7 0.00 0.58 0.58 65 1015.4
20260506014104 13 300 3.2 11.3 0.00 0.58 0.58 64 1015.2
20260506013604 13 273 3.2 11.3 0.00 0.58 0.58 64 1015.0
20260506013105 13 266 3.2 8.0 0.00 0.58 0.58 64 1014.9
20260506012605 13 303 3.2 8.0 0.00 0.58 0.58 63 1014.9
20260506012104 13 331 3.2 8.0 0.00 0.58 0.58 62 1014.8
20260506011605 13 266 1.6 4.8 0.00 0.58 0.58 62 1014.8
20260506011106 13 280 3.2 4.8 0.00 0.58 0.58 61 1014.8
20260506010603 13 285 3.2 8.0 0.00 0.58 0.58 60 1014.8
20260506010104 14 286 3.2 8.0 0.00 0.58 0.58 60 1014.8
20260506005604 14 274 3.2 11.3 0.00 0.58 0.58 59 1014.8
20260506005103 14 284 4.8 11.3 0.00 0.58 0.58 58 1014.7
20260506004604 14 316 4.8 16.1 0.00 0.58 0.58 57 1014.7
20260506004103 15 271 4.8 16.1 0.00 0.58 0.58 56 1014.7
20260506003604 15 282 9.7 16.1 0.00 0.58 0.58 54 1014.5
20260506003103 15 300 8.0 19.3 0.00 0.58 0.58 54 1014.6
20260506002604 15 276 9.7 19.3 0.00 0.58 0.58 54 1014.6
20260506002103 16 262 4.8 12.9 0.00 0.58 0.58 53 1014.6
20260506001605 16 275 8.0 14.5 0.00 0.58 0.58 54 1014.6
20260506000104 16 272 8.0 19.3 0.00 0.58 0.58 52 1014.5
20260505235604 16 268 11.3 19.3 0.00 0.58 0.58 54 1014.5
20260505235104 16 257 8.0 11.3 0.00 0.58 0.58 51 1014.5
20260505234603 16 237 6.4 14.5 0.00 0.58 0.58 52 1014.4
20260505234103 16 231 3.2 14.5 0.00 0.58 0.58 52 1014.4
20260505233604 16 245 8.0 16.1 0.00 0.58 0.58 54 1014.4
20260505233105 16 270 8.0 16.1 0.00 0.58 0.58 52 1014.5
20260505232603 16 250 8.0 16.1 0.00 0.58 0.58 51 1014.4
20260505232105 16 272 8.0 16.1 0.00 0.58 0.58 54 1014.4
20260505231604 16 220 4.8 19.3 0.00 0.58 0.58 53 1014.5
20260505231107 16 266 9.7 19.3 0.00 0.58 0.58 54 1014.6
20260505230604 16 273 9.7 19.3 0.00 0.58 0.58 54 1014.6
20260505230105 16 252 3.2 11.3 0.00 0.58 0.58 57 1014.6
20260505225604 15 247 6.4 9.7 0.00 0.58 0.58 56 1014.8
20260505225104 15 270 6.4 11.3 0.00 0.58 0.58 56 1014.8
20260505224604 15 336 4.8 12.9 0.00 0.58 0.58 56 1014.8
20260505224104 15 290 4.8 12.9 0.00 0.58 0.58 58 1014.8
20260505223604 15 336 4.8 11.3 0.00 0.58 0.58 59 1014.9
20260505223105 15 291 3.2 16.1 0.00 0.58 0.58 61 1014.9
20260505222604 14 287 4.8 16.1 0.00 0.58 0.58 60 1014.9
20260505222104 14 262 8.0 12.9 0.00 0.58 0.58 60 1014.9
20260505221604 14 261 4.8 11.3 0.00 0.58 0.58 60 1015.0
20260505221106 14 288 3.2 11.3 0.00 0.58 0.58 62 1015.1
20260505220603 14 287 8.0 11.3 0.00 0.58 0.58 62 1015.2
20260505220105 14 290 4.8 9.7 0.00 0.58 0.58 62 1015.3
20260505215604 14 303 4.8 9.7 0.00 0.58 0.58 63 1015.3
20260505215104 14 289 4.8 8.0 0.00 0.58 0.58 61 1015.3
20260505214604 14 290 1.6 8.0 0.00 0.58 0.58 62 1015.3
20260505214104 14 283 3.2 8.0 0.00 0.58 0.58 62 1015.3
20260505213604 14 270 1.6 4.8 0.00 0.58 0.58 62 1015.3
20260505213104 14 270 1.6 4.8 0.00 0.58 0.58 62 1015.4
20260505212603 14 270 0.0 4.8 0.00 0.58 0.58 62 1015.4
20260505212104 14 298 1.6 4.8 0.00 0.58 0.58 63 1015.4
20260505211604 13 298 0.0 8.0 0.00 0.58 0.58 63 1015.4
20260505211106 13 298 3.2 8.0 0.00 0.58 0.58 64 1015.4
20260505210604 13 314 4.8 8.0 0.00 0.58 0.58 64 1015.4
20260505210104 13 307 3.2 8.0 0.00 0.58 0.58 64 1015.4
20260505205604 13 295 3.2 4.8 0.00 0.58 0.58 63 1015.4
20260505204604 13 295 1.6 4.8 0.00 0.58 0.58 65 1015.4
20260505204105 13 298 1.6 12.9 0.00 0.58 0.58 66 1015.4
20260505203604 13 298 3.2 12.9 0.00 0.58 0.58 66 1015.4
20260505203104 13 321 8.0 12.9 0.00 0.58 0.58 66 1015.4
20260505202604 13 303 3.2 8.0 0.00 0.58 0.58 66 1015.4
20260505202104 13 303 3.2 9.7 0.00 0.58 0.58 67 1015.4
20260505201604 13 294 4.8 11.3 0.00 0.58 0.58 67 1015.4
20260505201106 13 242 4.8 19.3 0.00 0.58 0.58 66 1015.5
20260505200604 14 255 8.0 19.3 0.00 0.58 0.58 66 1015.5
20260505200105 14 226 4.8 9.7 0.00 0.58 0.58 68 1015.5
20260505195104 13 254 1.6 9.7 0.00 0.58 0.58 73 1015.5
20260505194604 13 280 4.8 9.7 0.00 0.58 0.58 72 1015.6
20260505194104 13 24 1.6 8.0 0.00 0.58 0.58 76 1015.8
20260505193604 13 39 1.6 4.8 0.00 0.58 0.58 78 1015.8
20260505193104 13 44 1.6 4.8 0.00 0.58 0.58 79 1015.8
20260505192604 13 144 0.0 8.0 0.00 0.58 0.58 82 1015.8
20260505192105 13 153 3.2 8.0 0.00 0.58 0.58 83 1015.8
20260505191603 13 63 1.6 3.2 0.00 0.58 0.58 87 1015.9
20260505191107 12 63 1.6 4.8 0.00 0.58 0.58 89 1015.9
20260505190604 12 63 0.0 4.8 0.00 0.58 0.58 90 1015.9
20260505190104 12 63 3.2 4.8 0.00 0.58 0.58 91 1015.8
20260505185604 12 65 1.6 4.8 0.00 0.58 0.58 92 1015.9
20260505185104 13 129 0.0 4.8 0.00 0.58 0.58 94 1015.8
20260505184604 12 74 1.6 8.0 0.00 0.58 0.58 93 1015.8
20260505184104 12 66 1.6 8.0 0.00 0.58 0.58 95 1015.8
20260505183604 12 79 1.6 4.8 0.00 0.58 0.58 95 1015.8
20260505183104 12 78 0.0 4.8 0.00 0.58 0.58 95 1015.9
20260505182105 12 83 0.0 8.0 0.00 0.58 0.58 95 1015.9
20260505181605 12 164 0.0 4.8 0.00 0.58 0.58 96 1016.0